Location: Gro� Glienicke
(52.4675°N, 13.1079°E)
Time: 19:15:37
(UTC+00:00)

COSMOS 2428 - Pass Details

Date: 06 July 2020
Orbit: 844 x 859 km, 70.9° (Epoch: 12 August)

Event Time Altitude Azimuth Distance (km) Brightness Sun altitude
Rises 21:47:06 0° 224° (SW) 3,394 5.6 -12.7°
Reaches altitude 10° 21:49:35 10° 228° (SW) 2,463 4.9 -12.8°
Maximum altitude 21:55:09 57° 307° (NW) 989 3.4 -13.1°
Drops below altitude 10° 22:00:46 10° 27° (NNE) 2,482 5.8 -13.4°
Sets 22:03:17 0° 31° (NNE) 3,422 6.5 -13.5°
